Warning: Javascript must be enabled to use all the features on this page!


Page Loading - Please Wait...

Click to hideNews Bulletins

USGS 04189260 Blanchard River at Ottawa OH

PROVISIONAL DATA SUBJECT TO REVISION

Click to hidestation-specific text
Station operated in cooperation with the Village of Ottawa and the National Streamflow Information Program.
 04189260 Blanchard River at Ottawa, OH
 LOCATION.--Lat 41°01'01", long 84°02'49", Putnam County, OH, Hydrologic 
     Unit 04100008, on right bank at downstream side of Oak Street, 200 ft. upstream 
     of B&O railroad bridge, 800 ft. upstream of SR65 bridge, 1,200 ft. southeast of 
     intersection of SR65 and US RT224 in the village of Ottawa, OH.
 DRAINAGE AREA.--628 mi2.
 PERIOD OF RECORD.--October 2009 to current water year.

Boating safety tips
Available Parameters Available Period
All 2 Available Parameters for this site
  
00065 Gage height 2014-09-28  2015-01-26
00060 Discharge 2009-10-01  2015-01-26

Graph
Graph w/ stats
Graph w/o stats
Graph w/ (up to 3) parms
Table
Tab-separated
Days  (7)
 

  -- or --
Begin date
 

End date
 

Summary of all available data for this site
Instantaneous-data availability statement
Gage height, feet
TIMEJan 19Jan 20Jan 21Jan 22Jan 23Jan 24Jan 25Jan 26
00:00 EST7.01P  8.90P  9.20P  9.08P  8.43P  8.13P  7.86P  7.48P  
00:30 EST7.05P  8.91P  9.20P  9.08P  8.41P  8.12P  7.85P  7.46P  
01:00 EST7.08P  8.93P  9.20P  9.07P  8.40P  8.11P  7.84P  7.45P  
01:30 EST7.13P  8.94P  9.19P  9.06P  8.39P  8.10P  7.83P  7.44P  
02:00 EST7.16P  8.96P  9.20P  9.05P  8.37P  8.09P  7.83P  7.41P  
02:30 EST7.20P  8.97P  9.20P  9.04P  8.36P  8.08P  7.82P  7.40P  
03:00 EST7.25P  8.97P  9.20P  9.03P  8.35P  8.07P  7.81P  7.37P  
03:30 EST7.29P  8.98P  9.20P  9.01P  8.34P  8.07P  7.80P  7.35P  
04:00 EST7.34P  8.99P  9.20P  9.00P  8.33P  8.06P  7.79P  7.33P  
04:30 EST7.38P  9.00P  9.21P  8.98P  8.31P  8.05P  7.78P  7.31P  
05:00 EST7.43P  9.00P  9.21P  8.96P  8.30P  8.04P  7.78P  7.29P  
05:30 EST7.48P  9.01P  9.21P  8.94P  8.29P  8.03P  7.77P  7.27P  
06:00 EST7.52P  9.01P  9.21P  8.93P  8.28P  8.03P  7.76P  7.25P  
06:30 EST7.57P  9.02P  9.21P  8.91P  8.27P  8.02P  7.76P  7.23P  
07:00 EST7.62P  9.03P  9.21P  8.89P  8.26P  8.01P  7.74P   
07:30 EST7.66P  9.03P  9.21P  8.87P  8.25P  8.00P  7.74P   
08:00 EST7.71P  9.04P  9.21P  8.85P  8.24P  7.99P  7.73P   
08:30 EST7.75P  9.04P  9.20P  8.83P  8.23P  7.99P  7.72P   
09:00 EST7.79P  9.05P  9.20P  8.81P  8.22P  7.98P  7.72P   
09:30 EST7.84P  9.05P  9.20P  8.78P  8.22P  7.98P  7.71P   
10:00 EST7.87P  9.06P  9.20P  8.76P  8.21P  7.97P  7.70P   
10:30 EST7.92P  9.06P  9.19P  8.75P  8.20P  7.96P  7.69P   
11:00 EST7.96P  9.06P  9.19P  8.73P  8.19P  7.96P  7.69P   
11:30 EST7.99P  9.06P  9.19P  8.71P  8.19P  7.96P  7.68P   
12:00 EST8.03P  9.06P  9.18P  8.69P  8.19P  7.95P  7.67P   
12:30 EST8.07P  9.06P  9.18P  8.68P  8.19P  7.95P  7.67P   
13:00 EST8.10P  9.07P  9.17P  8.66P  8.19P  7.94P  7.66P   
13:30 EST8.14P  9.06P  9.17P  8.65P  8.19P  7.93P  7.66P   
14:00 EST8.18P  9.07P  9.16P  8.63P  8.19P  7.94P  7.65P   
14:30 EST8.22P  9.08P  9.16P  8.62P  8.19P  7.93P  7.65P   
15:00 EST8.26P  9.08P  9.16P  8.61P  8.19P  7.93P  7.64P   
15:30 EST8.30P  9.08P  9.16P  8.60P  8.20P  7.93P  7.63P   
16:00 EST8.34P  9.09P  9.15P  8.59P  8.20P  7.92P  7.63P   
16:30 EST8.38P  9.10P  9.15P  8.58P  8.20P  7.92P  7.62P   
17:00 EST8.42P  9.10P  9.14P  8.58P  8.20P  7.92P  7.62P   
17:30 EST8.45P  9.11P  9.14P  8.57P  8.20P  7.92P  7.62P   
18:00 EST8.50P  9.12P  9.13P  8.56P  8.20P  7.92P  7.61P   
18:30 EST8.54P  9.12P  9.13P  8.56P  8.20P  7.92P  7.60P   
19:00 EST8.58P  9.13P  9.11P  8.55P  8.19P  7.91P  7.60P   
19:30 EST8.61P  9.14P  9.10P  8.54P  8.19P  7.91P  7.59P   
20:00 EST8.66P  9.14P  9.10P  8.53P  8.19P  7.91P  7.58P   
20:30 EST8.69P  9.15P  9.09P  8.52P  8.18P  7.90P  7.57P   
21:00 EST8.73P  9.16P  9.09P  8.51P  8.18P  7.90P  7.56P   
21:30 EST8.76P  9.17P  9.08P  8.50P  8.17P  7.89P  7.55P   
22:00 EST8.79P  9.17P  9.09P  8.49P  8.17P  7.89P  7.54P   
22:30 EST8.82P  9.18P  9.08P  8.47P  8.16P  7.88P  7.53P   
23:00 EST8.85P  9.18P  9.08P  8.46P  8.15P  7.87P  7.51P   
23:30 EST8.87P  9.19P  9.09P  8.44P  8.14P  7.87P  7.50P   
COUNT4848484848484814
MAX8.879.199.219.088.438.137.867.48
MIN7.018.909.088.448.147.877.507.23

Explanation
  P  Provisional data subject to revision.